Miscellaneous Local Product
Issued by NWS Hastings, NE

Home | Current Version | Previous Version | Graphics & Text | Print | Product List | Glossary On
Versions: 1 2 3 4 5 6 7 8 9 10 11 12 13 14 15 16 17 18 19 20 21 22 23 24 25 26 27 28 29 30 31 32 33 34 35 36 37 38 39 40 41 42 43 44 45 46 47 48 49 50
248
AXUS43 KGID 242302
MISGRI

GID CWA HOURLY WEATHER ROUNDUP
NATIONAL WEATHER SERVICE HASTINGS NE
600 PM CDT SAT JUN 24 2017

NOTE: "FAIR" INDICATES FEW OR NO CLOUDS BELOW 12,000 FEET WITH NO
SIGNIFICANT WEATHER AND/OR OBSTRUCTIONS TO VISIBILITY.

...SOUTH CENTRAL NEBRASKA...

CITY           SKY/WX    TMP DP  RH WIND       PRES   REMARKS
GRAND ISLAND   CLOUDY    75  41  29 W15       30.19S
HASTINGS       CLOUDY    73  39  29 W16G22    30.22S
KEARNEY        CLOUDY    73  39  29 W12       30.22S
ORD            CLOUDY    73  32  22 NW16G23   30.19S
YORK           CLOUDY    77  39  25 W13       30.17S
AURORA         CLOUDY    74  42  31 W13       30.18S
LEXINGTON      CLOUDY    73  40  30 W8        30.22F
HOLDREGE       CLOUDY    73  38  28 W10       30.22F
HEBRON         CLOUDY    75  39  26 W7        30.19F

...NEBRASKA PANHANDLE...

CITY           SKY/WX    TMP DP  RH WIND       PRES   REMARKS
CHADRON        PTSUNNY   76  31  19 W13G24    30.24F
ALLIANCE       CLOUDY    75  37  25 VRB7      30.26F
SCOTTSBLUFF    MOSUNNY   75  35  23 N3        30.26S
SIDNEY         MOSUNNY   75  34  22 CALM      30.28F

...WESTERN AND NORTH CENTRAL NEBRASKA...

CITY           SKY/WX    TMP DP  RH WIND       PRES   REMARKS
VALENTINE      PTSUNNY   77  28  16 NW13G23   30.21F
AINSWORTH      PTSUNNY   75  35  23 NW12G22   30.22S
ONEILL         MOSUNNY   76  37  24 NW18G28   30.18S
BROKEN BOW     SUNNY     75  36  24 N20       30.23R
IMPERIAL       CLOUDY    72  42  34 SE7       30.26F
NORTH PLATTE   SUNNY     76  39  26 SW13      30.23F
MCCOOK         CLOUDY    69  54  58 E3        30.23F

...EASTERN NEBRASKA...

CITY           SKY/WX    TMP DP  RH WIND       PRES   REMARKS
NORFOLK        CLOUDY    75  35  23 NW18G26   30.14R
SO SIOUX CITY  MOSUNNY   76  39  26 NW22G29   30.09F
TEKAMAH        MOSUNNY   80  35  19 NW17G26   30.10F
COLUMBUS       PTSUNNY   76  38  25 NW15      30.15F
ALBION         CLOUDY    76  33  20 NW13      30.17S
OMAHA EPPLEY   MOSUNNY   80  36  20 W21G28    30.11F
OFFUTT AFB     PTSUNNY   80  40  24 W16G26    30.11F
MILLARD        MOSUNNY   80  42  25 NW14G21   30.12S
LINCOLN        SUNNY     81  40  23 W15       30.14F
NEBRASKA CITY  SUNNY     78  46  31 W16       30.14S
BEATRICE       MOSUNNY   77  43  29 W12G22    30.16S
FALLS CITY     SUNNY     75  43  31 NW12      30.13F

...NORTHERN KANSAS...

CITY           SKY/WX    TMP DP  RH WIND       PRES   REMARKS
GOODLAND       CLOUDY    73  50  44 SE9       30.23F
HILL CITY      CLOUDY    76  53  44 E6        30.21S
NORTON         PTCLDY    79  39  24 NE7       30.21F
PHILLIPSBURG   CLOUDY    79  43  27 CALM      30.22S
SMITH CENTER   SUNNY     73  43  33 NW6       30.22F
HAYS           CLOUDY    79  53  40 NE5       30.19F
RUSSELL        MOSUNNY   81  50  33 NE12      30.17F
CONCORDIA      CLOUDY    77  39  25 N8        30.20S
SALINA         CLOUDY    83  45  26 NW6       30.17F
TOPEKA         SUNNY     80  46  30 NW9       30.17F



USA.gov is the U.S. government's official web portal to all federal, state and local government web resources and services.